Tracking 27097 objects as of 29-Mar-2023
HD Live streaming from Space Station
objects crossing your sky now

CZ-2D DEB

Track CZ-2D DEB now!
10-day predictions


NORAD ID: 43413
Int'l Code: 2013-068B
Perigee: 672.9 km
Apogee: 852.0 km
Inclination: 97.9 °
Period: 99.9 minutes
Semi major axis: 7133 km
RCS: Unknown
Launch date: November 25, 2013
Source: People's Republic of China (PRC)
Launch site: Jiuquan Satellite Launch Center, China (JSC)

Note: This is SATELLITE DEBRIS
Your satellite tracking list
Your tracking list is empty




NASA's NSSDC Master Catalog

Two Line Element Set (TLE):
1 43413U 13068B   23087.75067301  .00002643  00000-0  76135-3 0  9992
2 43413  97.8625 280.4218 0125582 327.3878  31.9600 14.40964676482022
Source of the keplerian elements: AFSPC